Find Kuiper-00196

NORAD ID: 67144 Int'l Des: 2025-301 Owner: KUIP Country: US Constellation: amazon-leo operational
LEOCIRCULAR

Live Position

Loading 3D Globe...

About Kuiper-00196

Description loading...

Upcoming Passes

Passes for default location (London). Set your location on the main map for personalized predictions.

Altitude History

Loading altitude history...

Two-Line Element Set

1 67144U 25301M 26125.28882641 .00039431 00000-0 10212-2 0 9996
2 67144 51.8680 150.8225 0001828 209.6051 150.4832 15.38659636 22455
Epoch: May 5, 2026 • Age: 18 hours

Current Status

Altitude 455.2 km
Velocity 7.65 km/s
Sub-Earth Point 47.21°N, 37.46°E
Launch Date Dec 16, 2025
Age 0.3 years
Type internet

Technical Details

Classification Payload
Mass 490.00 kg
Dry Mass 490.00 kg
Total Mass 490.00 kg
Length 1.80 m
Diameter 0.70 m
Span 5.00 m
Shape Box + 2 pan
Manufacturer KUIP
Bus Type Kuiper
Phase Status In Orbit
Owner/State KUIP/US

Most Searched